This demonstration page uses our WeatherBlox Daily Observations layout. Learn more.

Left ArrowRight Arrow

Hourly Observations for October 21, 2022

Temp ( °F °C ) Dew Point ( °F °C ) Humidity (%) Winds ( mph kmh ) Pressure ( in mb ) Visibility ( mi km ) Precip ( " mm )
12:51 am 00:51 Clear 56 13.3 42 5.6 60 60 SSW 5 7 29.93 1014 10 16 0.00 0.00
1:51 am 01:51 Clear 52 11.1 43 6.1 71 71 N 3 6 29.93 1014 10 16 0.00 0.00
2:51 am 02:51 Clear 50 10 43 6.1 77 77 ENE 3 6 29.92 1013 10 16 0.00 0.00
3:51 am 03:51 Clear 50 10 43 6.1 77 77 NW 6 9 29.92 1013 10 16 0.00 0.00
4:51 am 04:51 Clear 49 9.4 43 6.1 80 80 WNW 5 7 29.93 1014 10 16 0.00 0.00
5:51 am 05:51 Clear 49 9.4 42 5.6 77 77 ESE 5 7 29.95 1014 10 16 0.00 0.00
6:51 am 06:51 Sunny 52 11.1 42 5.6 69 69 SSE 9 15 29.97 1015 10 16 0.00 0.00
7:51 am 07:51 Sunny 60 15.6 41 5 49 49 SE 8 13 29.97 1015 10 16 0.00 0.00
8:51 am 08:51 Sunny 66 18.9 41 5 40 40 ESE 9 15 29.98 1015 10 16 0.00 0.00
9:51 am 09:51 Sunny 71 21.7 40 4.4 32 32 SE 15 24 29.97 1015 10 16 0.00 0.00
10:51 am 10:51 Sunny 74 23.3 42 5.6 32 32 ESE 6 9 29.94 1014 10 16 0.00 0.00
11:51 am 11:51 Sunny 76 24.4 42 5.6 30 30 SE 8 13 29.91 1013 10 16 0.00 0.00
12:51 pm 12:51 Sunny 79 26.1 44 6.7 29 29 VRB 3 6 29.85 1011 10 16 0.00 0.00
1:51 pm 13:51 Sunny 82 27.8 45 7.2 27 27 VRB 3 6 29.81 1010 10 16 0.00 0.00
2:51 pm 14:51 Sunny 84 28.9 46 7.8 27 27 Calm 29.79 1009 10 16 0.00 0.00
3:51 pm 15:51 Sunny 84 28.9 45 7.2 26 26 W 6 9 29.78 1009 10 16 0.00 0.00
4:51 pm 16:51 Sunny 82 27.8 45 7.2 27 27 WNW 8 13 29.77 1008 10 16 0.00 0.00
5:51 pm 17:51 Clear 76 24.4 45 7.2 33 33 W 7 11 29.78 1009 10 16 0.00 0.00
6:51 pm 18:51 Clear 71 21.7 46 7.8 41 41 N 6 9 29.80 1009 10 16 0.00 0.00
7:51 pm 19:51 Clear 69 20.6 46 7.8 44 44 NW 5 7 29.80 1009 10 16 0.00 0.00
8:51 pm 20:51 Clear 68 20 47 8.3 47 47 NW 8 13 29.79 1009 10 16 0.00 0.00
9:51 pm 21:51 Clear 68 20 48 8.9 49 49 NNW 7 11 29.79 1009 10 16 0.00 0.00
10:51 pm 22:51 Clear 64 17.8 47 8.3 54 54 SE 6 9 29.80 1009 10 16 0.00 0.00
11:51 pm 23:51 Clear 63 17.2 47 8.3 56 56 SSE 6 9 29.79 1009 10 16 0.00 0.00

Powered by AerisWeather